Weather History for Delaware, OH

Change the Weather History Date:

Friday, January 18, 2013

  Actual Average Record
Temperature  
Mean Temperature 24 °F -  
Max Temperature 32 °F 33 °F 61 °F (1952)
Min Temperature 17 °F 15 °F -19 °F (1977)
Degree Days  
Heating Degree Days 40    
Moisture  
Dew Point 18 °F    
Average Humidity 70    
Maximum Humidity 86    
Minimum Humidity 55    
Precipitation  
Precipitation 0.00 in - - ()
Sea Level Pressure  
Sea Level Pressure 30.37 in    
Wind  
Wind Speed 8 mph (SW)    
Max Wind Speed 21 mph    
Max Gust Speed 26 mph    
Visibility 10 miles    
Events      
Averages and records for this station are not official NWS values.
T = Trace of Precipitation, MM = Missing Value Source: NWS Daily Summary

Daily Weather History Graph

Daily Weather History Graph

Search for Another Location

Airport:

Trip Planner

Search our weather history database for the weather conditions in past years. The results will help you decide how hot, cold, wet, or windy it might be!

Date:

Astronomy

Jan. 18, 2013 Rise Set
Actual Time 7:51 AM EST 5:34 PM EST
Civil Twilight 7:22 AM EST 6:04 PM EST
Nautical Twilight 6:48 AM EST 6:37 PM EST
Astronomical Twilight 6:16 AM EST 7:10 PM EST
Moon 11:28 AM EST (1/18) 12:24 AM EST (1/18)
Length of Visible Light 10h 42m
Length of Day
9h 42m
Waxing Crescent, 47% of the Moon is Illuminated
Jan 18
Waxing Crescent
Jan 18
First Quarter
Jan 26
Full
Feb 3
Last Quarter
Feb 10
New

Hourly Weather History & Observations

Time (EST) Temp. Windchill Dew Point Humidity Pressure Visibility Wind Dir Wind Speed Gust Speed Precip Events Conditions
12:03 AM 23.0 °F 11.7 °F 14.0 °F 68% 30.33 in 10.0 mi NNW 11.5 mph 17.3 mph N/A   Clear
12:22 AM 23.0 °F 12.4 °F 14.0 °F 68% 30.34 in 10.0 mi NW 10.4 mph 17.3 mph N/A   Clear
12:43 AM 21.2 °F 10.1 °F 14.0 °F 74% 30.35 in 10.0 mi NW 10.4 mph - N/A   Scattered Clouds
1:03 AM 21.2 °F 10.9 °F 12.2 °F 68% 30.36 in 10.0 mi NW 9.2 mph 21.9 mph N/A   Clear
1:22 AM 21.2 °F 11.7 °F 12.2 °F 68% 30.37 in 10.0 mi WNW 8.1 mph - N/A   Clear
1:43 AM 21.2 °F 13.6 °F 12.2 °F 68% 30.39 in 10.0 mi NW 5.8 mph - N/A   Clear
2:03 AM 21.2 °F 10.9 °F 12.2 °F 68% 30.40 in 10.0 mi NW 9.2 mph - N/A   Clear
2:22 AM 21.2 °F 12.6 °F 12.2 °F 68% 30.41 in 10.0 mi NW 6.9 mph - N/A   Scattered Clouds
2:43 AM 21.2 °F 14.9 °F 14.0 °F 74% 30.42 in 10.0 mi WNW 4.6 mph - N/A   Clear
3:03 AM 19.4 °F 14.3 °F 14.0 °F 80% 30.42 in 10.0 mi WNW 3.5 mph - N/A   Scattered Clouds
3:22 AM 19.4 °F 14.3 °F 14.0 °F 80% 30.42 in 10.0 mi NW 3.5 mph - N/A   Clear
3:43 AM 19.4 °F 12.8 °F 14.0 °F 80% 30.43 in 10.0 mi WNW 4.6 mph - N/A   Clear
4:03 AM 19.4 °F - 14.0 °F 80% 30.43 in 10.0 mi Calm Calm - N/A   Clear
4:22 AM 19.4 °F - 14.0 °F 80% 30.43 in 10.0 mi Calm Calm - N/A   Clear
4:43 AM 19.4 °F - 14.0 °F 80% 30.43 in 10.0 mi Calm Calm - N/A   Clear
5:03 AM 17.6 °F - 14.0 °F 86% 30.43 in 10.0 mi Calm Calm - N/A   Clear
5:22 AM 19.4 °F - 14.0 °F 80% 30.43 in 10.0 mi Calm Calm - N/A   Clear
5:43 AM 17.6 °F - 14.0 °F 86% 30.44 in 10.0 mi Calm Calm - N/A   Clear
6:03 AM 17.6 °F - 14.0 °F 86% 30.44 in 10.0 mi Calm Calm - N/A   Clear
6:22 AM 19.4 °F - 14.0 °F 80% 30.44 in 10.0 mi Calm Calm - N/A   Clear
6:43 AM 19.4 °F 14.3 °F 14.0 °F 80% 30.44 in - WSW 3.5 mph - N/A   Unknown
7:03 AM 19.4 °F - 14.0 °F 80% 30.45 in 10.0 mi Calm Calm - N/A   Clear
7:23 AM 19.4 °F - 14.0 °F 80% 30.45 in 10.0 mi Calm Calm - N/A   Clear
7:43 AM 19.4 °F - 14.0 °F 80% 30.45 in 10.0 mi Calm Calm - N/A   Clear
8:02 AM 19.4 °F - 14.0 °F 80% 30.45 in 10.0 mi Calm Calm - N/A   Clear
8:23 AM 19.4 °F - 14.0 °F 80% 30.46 in 10.0 mi Calm Calm - N/A   Clear
8:43 AM 19.4 °F 14.3 °F 15.8 °F 86% 30.47 in 10.0 mi WSW 3.5 mph - N/A   Clear
9:03 AM 21.2 °F 16.4 °F 17.6 °F 86% 30.47 in 10.0 mi WSW 3.5 mph - N/A   Clear
9:23 AM 23.0 °F 17.0 °F 17.6 °F 80% 30.48 in 10.0 mi SW 4.6 mph - N/A   Clear
9:43 AM 24.8 °F 16.9 °F 17.6 °F 74% 30.49 in 10.0 mi SW 6.9 mph - N/A   Clear
10:02 AM 24.8 °F 17.9 °F 17.6 °F 74% 30.49 in 10.0 mi WSW 5.8 mph - N/A   Clear
10:23 AM 26.6 °F 21.2 °F 17.6 °F 69% 30.49 in 10.0 mi SSW 4.6 mph - N/A   Clear
10:43 AM 26.6 °F 20.0 °F 17.6 °F 69% 30.49 in 10.0 mi SSW 5.8 mph - N/A   Clear
11:02 AM 28.4 °F 20.4 °F 17.6 °F 64% 30.49 in 10.0 mi WSW 8.1 mph - N/A   Clear
11:23 AM 28.4 °F 22.2 °F 17.6 °F 64% 30.47 in 10.0 mi SW 5.8 mph - N/A   Clear
11:43 AM 30.2 °F 22.6 °F 17.6 °F 60% 30.47 in 10.0 mi SW 8.1 mph - N/A   Clear
12:02 PM 30.2 °F 20.8 °F 17.6 °F 60% 30.46 in 10.0 mi SW 11.5 mph - N/A   Clear
12:23 PM 30.2 °F 21.9 °F 17.6 °F 60% 30.44 in 10.0 mi SW 9.2 mph - N/A   Clear
12:43 PM 32.0 °F 23.6 °F 17.6 °F 55% 30.43 in 10.0 mi SW 10.4 mph - N/A   Clear
1:02 PM 32.0 °F 23.0 °F 17.6 °F 55% 30.42 in 10.0 mi SSW 11.5 mph - N/A   Clear
1:23 PM 32.0 °F 22.5 °F 19.4 °F 60% 30.40 in 10.0 mi SSW 12.7 mph 17.3 mph N/A   Clear
1:43 PM 32.0 °F 22.1 °F 19.4 °F 60% 30.39 in 10.0 mi South 13.8 mph - N/A   Clear
2:02 PM 32.0 °F 21.6 °F 19.4 °F 60% 30.38 in 10.0 mi South 15.0 mph 20.7 mph N/A   Clear
2:23 PM 32.0 °F 21.6 °F 19.4 °F 60% 30.37 in 10.0 mi South 15.0 mph - N/A   Clear
2:43 PM 32.0 °F 21.6 °F 19.4 °F 60% 30.37 in 10.0 mi South 15.0 mph 21.9 mph N/A   Clear
3:02 PM 32.0 °F 21.6 °F 19.4 °F 60% 30.36 in 10.0 mi SSW 15.0 mph 23.0 mph N/A   Clear
3:23 PM 32.0 °F 21.6 °F 19.4 °F 60% 30.35 in 10.0 mi SSW 15.0 mph 21.9 mph N/A   Clear
3:43 PM 32.0 °F 19.8 °F 19.4 °F 60% 30.34 in 10.0 mi SSW 20.7 mph 25.3 mph N/A   Clear
4:02 PM 32.0 °F 21.6 °F 21.2 °F 64% 30.33 in 10.0 mi South 15.0 mph 23.0 mph N/A   Clear
4:23 PM 32.0 °F 20.8 °F 21.2 °F 64% 30.33 in 10.0 mi SSW 17.3 mph 23.0 mph N/A   Clear
4:43 PM 32.0 °F 20.1 °F 21.2 °F 64% 30.32 in 10.0 mi South 19.6 mph 26.5 mph N/A   Clear
5:03 PM 32.0 °F 20.8 °F 21.2 °F 64% 30.31 in 10.0 mi South 17.3 mph 24.2 mph N/A   Clear
5:23 PM 32.0 °F 22.5 °F 19.4 °F 60% 30.31 in 10.0 mi South 12.7 mph 26.5 mph N/A   Clear
5:42 PM 32.0 °F 22.1 °F 19.4 °F 60% 30.30 in 10.0 mi South 13.8 mph 19.6 mph N/A   Clear
6:03 PM 32.0 °F 22.1 °F 21.2 °F 64% 30.30 in 10.0 mi South 13.8 mph 23.0 mph N/A   Clear
6:23 PM 32.0 °F 22.5 °F 21.2 °F 64% 30.30 in 10.0 mi South 12.7 mph 18.4 mph N/A   Clear
6:42 PM 32.0 °F 21.6 °F 21.2 °F 64% 30.30 in 10.0 mi South 15.0 mph 23.0 mph N/A   Clear
7:03 PM 32.0 °F 23.0 °F 21.2 °F 64% 30.29 in 10.0 mi South 11.5 mph - N/A   Clear
7:23 PM 32.0 °F 22.5 °F 21.2 °F 64% 30.29 in 10.0 mi South 12.7 mph 20.7 mph N/A   Clear
7:42 PM 30.2 °F 20.8 °F 21.2 °F 69% 30.28 in 10.0 mi South 11.5 mph 18.4 mph N/A   Clear
8:03 PM 30.2 °F 19.3 °F 21.2 °F 69% 30.27 in 10.0 mi South 15.0 mph - N/A   Clear
8:23 PM 30.2 °F 20.8 °F 23.0 °F 75% 30.27 in 10.0 mi South 11.5 mph 19.6 mph N/A   Clear
8:42 PM 30.2 °F 19.3 °F 23.0 °F 75% 30.26 in 10.0 mi South 15.0 mph 20.7 mph N/A   Clear
9:03 PM 32.0 °F 22.1 °F 23.0 °F 69% 30.24 in 10.0 mi South 13.8 mph 20.7 mph N/A   Clear
9:23 PM 32.0 °F 22.5 °F 23.0 °F 69% 30.24 in 10.0 mi South 12.7 mph 20.7 mph N/A   Clear
9:42 PM 32.0 °F 22.1 °F 23.0 °F 69% 30.23 in 10.0 mi South 13.8 mph 23.0 mph N/A   Clear
10:03 PM 32.0 °F 22.1 °F 23.0 °F 69% 30.22 in 10.0 mi South 13.8 mph 19.6 mph N/A   Clear
10:23 PM 32.0 °F 22.5 °F 23.0 °F 69% 30.20 in 10.0 mi South 12.7 mph - N/A   Clear
10:42 PM 32.0 °F 21.6 °F 23.0 °F 69% 30.20 in 10.0 mi SSW 15.0 mph 21.9 mph N/A   Clear
11:23 PM 32.0 °F 21.2 °F 23.0 °F 69% 30.18 in 10.0 mi SSW 16.1 mph 24.2 mph N/A   Clear
11:42 PM 32.0 °F 21.2 °F 23.0 °F 69% 30.17 in 10.0 mi SSW 16.1 mph 23.0 mph N/A   Clear